Regional Weather Roundup
Issued by NWS

Home | Current Version | Previous Version | Text Only | Print | Product List | Glossary Off
Versions: 1 2 3 4 5 6 7 8 9 10 11 12 13 14 15 16 17 18 19 20 21 22 23 24 25 26 27 28 29 30 31 32 33 34 35 36 37 38 39 40 41 42 43 44 45 46 47 48 49 50

000
ASUS43 KBIS 230120
RWRND

NORTH DAKOTA REGIONAL WEATHER ROUNDUP
NATIONAL WEATHER SERVICE BISMARCK ND
700 PM CST SAT NOV 22 2014

NOTE: "FAIR" INDICATES FEW OR NO CLOUDS BELOW 12,000 FEET WITH NO
SIGNIFICANT WEATHER AND/OR OBSTRUCTIONS TO VISIBILITY.


NDZ001>003-009>011-017-230200-
NORTHWEST NORTH DAKOTA

CITY           SKY/WX    TMP DP  RH WIND       PRES   REMARKS
WILLISTON      PTCLDY    31  29  92 SW7       29.27S
MINOT          CLOUDY    43  31  62 SW12      29.24S
MINOT AFB      CLOUDY    37  31  79 W7        29.24R
$$

NDZ018>021-031>035-040>046-230200-
SOUTHWEST NORTH DAKOTA

CITY           SKY/WX    TMP DP  RH WIND       PRES   REMARKS
BISMARCK       CLOUDY    36  33  89 S5        29.35S
DICKINSON      MOCLDY    37  34  89 SW12      29.31S
GARRISON         N/A     39  32  76 W6        29.28R
HETTINGER ARPT CLOUDY    39  34  82 CALM      29.38S
$$

NDZ004>008-012>016-024-026-027-054-230200-
NORTHEAST NORTH DAKOTA

CITY           SKY/WX    TMP DP  RH WIND       PRES   REMARKS
GRAND FORKS    CLOUDY    36  30  79 SE7       29.40F
GRND FRKS AFB  CLOUDY    35  32  88 SE8       29.39F
DEVILS LAKE    CLOUDY    37  25  60 SE9       29.32F
$$

NDZ022-023-025-028>030-036>039-047>053-230200-
SOUTHEAST NORTH DAKOTA

CITY           SKY/WX    TMP DP  RH WIND       PRES   REMARKS
FARGO          CLOUDY    35  30  82 S18       29.43F
JAMESTOWN      MOCLDY    33  28  81 S7        29.34F
$$




USA.gov is the U.S. government's official web portal to all federal, state and local government web resources and services.